Location: 22
(39.7117°N, 89.5929°W)
Time: 08:11:58
(UTC-05:00)

Hubble Space Telescope - Pass Details

Date: 27 April 2026
Orbit: 473 x 476 km, 28.5° (Epoch: 18 May)

Event Time Altitude Azimuth Distance (km) Brightness Sun altitude
Rises 20:50:36 0° 241° (WSW) 2,507 4.6 -11.7°
Reaches altitude 10° 20:53:32 10° 217° (SW) 1,630 3.3 -12.1°
Maximum altitude 20:55:41 15° 181° (S) 1,363 2.6 -12.5°
Enters shadow 20:56:44 13° 162° (SSE) 1,431 2.5 -12.7°
